Sheridan, WY (82801)

2:38 AM MDT on August 04, 2015 (GMT -0600)
North Airport Area | | Change Station
CLOSE
Current Station
Personal Weather Station
Location: Sheridan, WY
Elevation: 3917 ft
Nearby Weather Stations

Elev 3917 ft 44.78 °N, 106.97 °W | Updated 8 minutes ago

Scattered Clouds
Scattered Clouds
72.9 °F
Feels Like 77 °F
N
2.7
Wind Variable Wind from ENE

Today
High -- | Low -- °F
--% Chance of Precip.
Yesterday
High -- | Low -- °F
Precip. -- in
5:57 AM 8:30 PM
Waning Gibbous, 79% visible
Pressure 29.75 in
Visibility 10.0 miles
Clouds Scattered Clouds 8500 ft
Scattered Clouds 11000 ft
Heat Index 77 °F
Dew Point 47 °F
Humidity 40%
Rainfall 0.00 in
Snow Depth Not available.
UV 0 out of 12
Pollen 6.60 out of 12
Air Quality Not available.
Flu Activity Not available.
METAR KSHR 040753Z AUTO 05006KT 10SM SCT085 SCT110 23/07 A2989 RMK AO2 WSHFT 0647 SLP074 T02280072

More Conditions Fewer Conditions

Pressure 29.75 in
Visibility 10.0 miles
Clouds Scattered Clouds 8500 ft
Scattered Clouds 11000 ft
Heat Index 77 °F
Dew Point 47 °F
Humidity 40%
Rainfall 0.00 in
Snow Depth Not available.
UV 0 out of 12
Pollen 6.60 out of 12
Air Quality Not available.
Flu Activity Not available.
METAR KSHR 040753Z AUTO 05006KT 10SM SCT085 SCT110 23/07 A2989 RMK AO2 WSHFT 0647 SLP074 T02280072

More Conditions Fewer Conditions

10-Day Weather Forecast

×

Almanac

Astronomy

Aug. 04, 2015 Rise Set
Actual Time
Civil Twilight
Nautical Twilight
Astronomical Twilight
Moon
Length of Visible Light
Length of Day
Tomorrow will be .
, % of the Moon is Illuminated

Today's Extremes

State Highs State Lows

Community

WunderPhotos

Upload Photos

1,843,877 photos uploaded!

WunderBlogs® & News

Nearby

Air Quality

  Air Quality AQ Index Pollutant
Not available.

Snow Depth

Station Depth Elevation

Earthquake Activity

City Distance Mag. Time & Date
Minimum magnitude displayed is 2.5.

Coastal Water Temperatures

Place Temperature

Stations

Nearby Weather Stations

Station Location Temp. Windchill Dew Point Humidity Wind Precip. Elev Updated Type